CDT,Max TemperatureF,Mean TemperatureF,Min TemperatureF,Max Dew PointF,MeanDew PointF,Min DewpointF,Max Humidity, Mean Humidity, Min Humidity, Max Sea Level PressureIn, Mean Sea Level PressureIn, Min Sea Level PressureIn, Max VisibilityMiles, Mean VisibilityMiles, Min VisibilityMiles, Max Wind SpeedMPH, Mean Wind SpeedMPH, Max Gust SpeedMPH,PrecipitationIn, CloudCover, Events, WindDirDegrees
2012-3-1,81,56,32,14,7,1,37,17,5,29.99,29.87,29.69,10,10,5,26,9,37,0.00,0,,238
2012-3-2,77,58,40,17,11,-1,34,16,7,29.93,29.81,29.73,10,10,5,36,11,44,0.00,1,,274
2012-3-3,62,46,31,25,9,-4,68,28,7,30.29,30.19,30.09,10,10,10,21,10,24,0.00,0,,282
2012-3-4,77,52,28,10,3,-2,28,16,7,30.22,30.15,30.05,10,10,10,20,7,25,0.00,0,,245
2012-3-5,81,56,30,18,12,8,44,23,7,30.26,30.15,30.02,10,10,3,16,6,23,0.00,0,,338
2012-3-6,84,62,40,44,30,22,64,39,10,30.02,29.88,29.72,10,10,10,20,6,25,0.00,0,,128
2012-3-7,88,63,38,49,31,7,82,43,5,29.84,29.76,29.66,10,10,7,25,5,30,0.00,1,,113
2012-3-8,66,53,40,48,28,15,67,48,15,30.49,30.13,29.82,10,7,4,29,13,34,0.00,5,,349
2012-3-9,43,40,37,30,25,21,69,55,46,30.53,30.47,30.37,10,10,10,18,12,24,0.00,8,,4
2012-3-10,44,40,36,35,34,32,91,81,66,30.36,30.20,30.06,10,8,2,7,3,,0.00,8,,330
2012-3-11,75,50,26,33,22,14,90,47,12,30.11,30.01,29.91,10,10,5,26,8,36,0.00,0,,233
2012-3-12,80,59,38,17,13,9,33,18,7,30.10,30.03,29.98,10,10,10,20,9,28,0.00,0,,243
2012-3-13,85,62,39,56,26,9,76,31,11,30.09,30.01,29.90,10,10,7,20,5,26,0.00,0,,62
2012-3-14,82,65,48,55,44,18,94,64,9,30.09,30.00,29.96,10,7,0,15,6,,0.00,1,Fog,126
2012-3-15,83,62,41,56,33,7,89,50,5,30.12,30.05,29.99,10,10,0,14,5,,0.00,1,Fog,213
2012-3-16,86,65,44,58,49,36,95,64,21,30.05,29.95,29.84,10,8,0,25,6,31,0.00,1,Fog,100
2012-3-17,89,68,47,57,43,23,95,62,9,29.97,29.89,29.77,10,7,0,23,5,34,0.00,2,Fog-Rain,172
2012-3-18,86,72,58,53,36,20,70,32,9,29.82,29.74,29.61,10,10,4,28,15,43,0.00,0,,174
2012-3-19,68,58,48,44,33,24,78,42,20,29.85,29.74,29.62,10,9,2,37,17,45,0.01,1,Rain,277
2012-3-20,56,48,39,33,24,15,61,42,21,29.95,29.85,29.77,10,10,3,32,17,50,0.00,0,Rain,265
2012-3-21,70,54,39,27,19,7,58,33,10,29.99,29.91,29.81,10,10,10,28,14,36,0.00,0,,266
2012-3-22,82,57,32,24,19,13,57,28,10,29.95,29.89,29.83,10,10,7,21,6,26,0.00,0,,253
2012-3-23,88,63,38,37,30,17,74,40,8,30.08,29.99,29.89,10,10,10,14,5,23,0.00,0,,334
2012-3-24,91,66,41,31,22,18,45,24,8,30.06,29.98,29.91,10,10,10,8,4,,0.00,0,,323
2012-3-25,94,70,45,48,37,27,67,36,11,30.04,29.96,29.85,10,10,10,25,8,32,0.00,0,,102
2012-3-26,90,73,56,51,45,27,70,43,10,29.99,29.92,29.80,10,10,5,23,10,29,0.00,0,,97
2012-3-27,89,68,48,58,42,29,87,45,12,30.01,29.95,29.89,10,9,2,28,7,33,0.00,0,,149
2012-3-28,89,70,50,48,38,27,74,40,11,30.02,29.94,29.83,10,10,5,20,4,24,0.00,0,,106
2012-3-29,90,70,49,52,37,18,84,40,7,29.93,29.87,29.78,10,10,10,18,5,24,0.00,0,,193
2012-3-30,90,68,47,28,18,9,43,18,6,29.95,29.86,29.79,10,10,7,15,7,23,0.00,0,,281
2012-3-31,93,69,45,18,13,8,22,13,6,29.95,29.87,29.78,10,10,10,13,7,17,0.00,0,,239